Find Starlink 30705

NORAD ID: 57945 Int'l Des: 2023-148 Owner: SPXS Country: US Constellation: starlink operational
LEOCIRCULAR

Current View

Loading 3D Globe...

About Starlink 30705

Starlink 30705 (NORAD 57945) is a starlink constellation satellite (v2 mini) launched Sep 25, 2023 by SPXS of US. It operates in LEO, CIRCULAR orbit with a mass of 730.00 kg.

About Starlink 30705

Description loading...

Upcoming Passes

Passes for default location (London). Set your location on the main map for personalized predictions.

Altitude History

Loading altitude history...

Two-Line Element Set

1 57945U 23148L 26176.49898862 .00000445 00000-0 24301-4 0 9991
2 57945 53.1590 242.4480 0000999 91.6044 268.5073 15.34392421154948
Epoch: Jun 25, 2026 • Age: 9 hours

Current Status

Altitude 463.0 km
Velocity 7.64 km/s
Sub-Earth Point 4.60°N, 164.87°W
Launch Date Sep 25, 2023
Age 2.7 years
Type internet

Technical Details

Classification Payload
Mass 730.00 kg
Dry Mass 700.00 kg
Total Mass 730.00 kg
Length 0.30 m
Diameter 4.10 m
Span 29.00 m
Shape Box + pan
Manufacturer SPXS
Bus Type Starlink V2M
Phase Status In Orbit
Owner/State SPXS/US

Most Searched